Weather History for KDNS - January, 2014

Change the Weather History Date:

Wednesday, January 29, 2014

  Actual Average Record
Temperature  
Mean Temperature 19 °F -  
Max Temperature 42 °F 31 °F 42 °F (2014)
Min Temperature -4 °F 16 °F -4 °F (2004)
Degree Days  
Heating Degree Days 46    
Moisture  
Dew Point 0 °F    
Average Humidity 43    
Maximum Humidity 66    
Minimum Humidity 23    
Precipitation  
Precipitation 0.00 in - - ()
Sea Level Pressure  
Sea Level Pressure 29.90 in    
Wind  
Wind Speed 7 mph (SSW)    
Max Wind Speed 26 mph    
Max Gust Speed 37 mph    
Visibility 10 miles    
Events      
Averages and records for this station are not official NWS values.
T = Trace of Precipitation, MM = Missing Value Source: NWS Daily Summary

Daily Weather History Graph

Daily Weather History Graph

Search for Another Location

Airport or City:

Trip Planner

Search our weather history database for the weather conditions in past years. The results will help you decide how hot, cold, wet, or windy it might be!

Date:

Astronomy

Jan. 29, 2014 Rise Set
Actual Time 7:37 AM CST 5:32 PM CST
Civil Twilight 7:07 AM CST 6:02 PM CST
Nautical Twilight 6:33 AM CST 6:36 PM CST
Astronomical Twilight 6:00 AM CST 7:08 PM CST
Moon 6:14 AM CST (1/29) 4:33 PM CST (1/29)
Length of Visible Light 10h 55m
Length of Day
9h 55m
Waning Crescent, 2% of the Moon is Illuminated
Jan 29
Waning Crescent
Jan 30
New
Feb 6
First Quarter
Feb 14
Full
Feb 22
Last Quarter

Hourly Weather History & Observations

Time (CST) Temp. Windchill Dew Point Humidity Pressure Visibility Wind Dir Wind Speed Gust Speed Precip Events Conditions
12:15 AM -4.0 °F - -13.0 °F 65% 30.19 in 10.0 mi Calm Calm - N/A   Clear
12:35 AM -4.0 °F - -13.0 °F 65% 30.18 in 10.0 mi Calm Calm - N/A   Clear
12:55 AM -4.0 °F - -14.8 °F 60% 30.18 in 10.0 mi Calm Calm - N/A   Clear
1:15 AM -2.2 °F - -13.0 °F 60% 30.18 in 10.0 mi Calm Calm - N/A   Clear
1:35 AM -4.0 °F - -14.8 °F 60% 30.17 in 10.0 mi Calm Calm - N/A   Clear
1:55 AM -4.0 °F -14.6 °F -14.8 °F 60% 30.16 in 10.0 mi WSW 4.6 mph - N/A   Clear
2:15 AM -4.0 °F - -14.8 °F 60% 30.16 in 10.0 mi Calm Calm - N/A   Clear
2:35 AM -4.0 °F - -14.8 °F 60% 30.16 in 10.0 mi Calm Calm - N/A   Clear
2:55 AM -2.2 °F - -13.0 °F 60% 30.15 in 10.0 mi Calm Calm - N/A   Clear
3:15 AM -2.2 °F - -14.8 °F 55% 30.15 in 10.0 mi Calm Calm - N/A   Clear
3:35 AM -2.2 °F - -13.0 °F 60% 30.13 in 10.0 mi Calm Calm - N/A   Clear
3:55 AM -2.2 °F - -13.0 °F 60% 30.12 in 10.0 mi Calm Calm - N/A   Clear
4:15 AM -2.2 °F - -13.0 °F 60% 30.11 in 10.0 mi Calm Calm - N/A   Clear
4:35 AM -2.2 °F - -13.0 °F 60% 30.11 in 10.0 mi Calm Calm - N/A   Clear
4:55 AM -2.2 °F - -13.0 °F 60% 30.10 in 10.0 mi Calm Calm - N/A   Clear
5:15 AM -2.2 °F - -13.0 °F 60% 30.09 in 10.0 mi Calm Calm - N/A   Clear
5:35 AM -2.2 °F - -13.0 °F 60% 30.09 in 10.0 mi Calm Calm - N/A   Clear
5:55 AM -0.4 °F - -11.2 °F 60% 30.08 in 10.0 mi Calm Calm - N/A   Clear
6:15 AM -0.4 °F - -11.2 °F 60% 30.07 in 10.0 mi Calm Calm - N/A   Clear
6:35 AM -0.4 °F - -11.2 °F 60% 30.06 in 10.0 mi Calm Calm - N/A   Clear
6:55 AM 1.4 °F -6.2 °F -7.6 °F 66% 30.06 in 10.0 mi SSE 3.5 mph - N/A   Clear
7:15 AM 3.2 °F -4.2 °F -7.6 °F 61% 30.06 in 10.0 mi South 3.5 mph - N/A   Clear
7:35 AM 3.2 °F -4.2 °F -7.6 °F 61% 30.06 in 10.0 mi South 3.5 mph - N/A   Clear
7:55 AM 3.2 °F -6.2 °F -7.6 °F 61% 30.05 in 10.0 mi South 4.6 mph - N/A   Clear
8:15 AM 5.0 °F -2.1 °F -5.8 °F 61% 30.04 in 10.0 mi Variable 3.5 mph - N/A   Clear
8:35 AM 6.8 °F -0.1 °F -5.8 °F 56% 30.04 in 10.0 mi SSW 3.5 mph - N/A   Clear
8:55 AM 8.6 °F -2.6 °F -4.0 °F 57% 30.03 in 10.0 mi South 6.9 mph - N/A   Clear
9:15 AM 10.4 °F -2.4 °F -2.2 °F 57% 30.01 in 10.0 mi South 9.2 mph 16.1 mph N/A   Clear
9:35 AM 12.2 °F -0.2 °F -0.4 °F 57% 30.03 in 10.0 mi SSW 9.2 mph - N/A   Clear
9:55 AM 17.6 °F 5.0 °F 1.4 °F 49% 30.01 in 10.0 mi South 11.5 mph - N/A   Clear
10:15 AM 19.4 °F 8.6 °F 1.4 °F 46% 30.01 in 10.0 mi SSW 9.2 mph 16.1 mph N/A   Clear
10:35 AM 23.0 °F 9.2 °F 1.4 °F 39% 29.99 in 10.0 mi SSW 17.3 mph - N/A   Clear
10:55 AM 26.6 °F 15.2 °F 1.4 °F 34% 29.98 in 10.0 mi SSW 13.8 mph 21.9 mph N/A   Clear
11:15 AM 28.4 °F 17.0 °F 1.4 °F 31% 29.97 in 10.0 mi SSW 15.0 mph 24.2 mph N/A   Clear
11:35 AM 30.2 °F 18.9 °F 1.4 °F 29% 29.96 in 10.0 mi SSW 16.1 mph 26.5 mph N/A   Clear
11:55 AM 32.0 °F 20.8 °F 3.2 °F 30% 29.94 in 10.0 mi SSW 17.3 mph 29.9 mph N/A   Clear
12:15 PM 32.0 °F 19.5 °F 3.2 °F 30% 29.92 in 10.0 mi SW 21.9 mph 33.4 mph N/A   Clear
12:35 PM 33.8 °F 22.2 °F 3.2 °F 28% 29.90 in 10.0 mi SSW 20.7 mph 28.8 mph N/A   Clear
12:55 PM 35.6 °F 24.5 °F 3.2 °F 26% 29.88 in 10.0 mi SSW 20.7 mph 29.9 mph N/A   Clear
1:15 PM 37.4 °F 26.9 °F 3.2 °F 24% 29.87 in 10.0 mi SW 20.7 mph 31.1 mph N/A   Clear
1:35 PM 37.4 °F 26.9 °F 3.2 °F 24% 29.84 in 10.0 mi SSW 20.7 mph 31.1 mph N/A   Clear
1:55 PM 39.2 °F 29.0 °F 5.0 °F 24% 29.83 in 10.0 mi SSW 21.9 mph 33.4 mph N/A   Clear
2:15 PM 39.2 °F 28.7 °F 6.8 °F 26% 29.81 in 10.0 mi SSW 23.0 mph 31.1 mph N/A   Clear
2:35 PM 39.2 °F 29.8 °F 6.8 °F 26% 29.80 in 10.0 mi SSW 18.4 mph 35.7 mph N/A   Clear
2:55 PM 41.0 °F 30.9 °F 8.6 °F 26% 29.79 in 10.0 mi SSW 24.2 mph 36.8 mph N/A   Clear
3:15 PM 42.8 °F 32.9 °F 8.6 °F 25% 29.77 in 10.0 mi SSW 26.5 mph 32.2 mph N/A   Clear
3:35 PM 42.8 °F 33.1 °F 8.6 °F 25% 29.75 in 10.0 mi SSW 25.3 mph 34.5 mph N/A   Clear
3:55 PM 42.8 °F 33.3 °F 6.8 °F 23% 29.75 in 10.0 mi SSW 24.2 mph 35.7 mph N/A   Clear
4:15 PM 42.8 °F 33.3 °F 6.8 °F 23% 29.74 in 10.0 mi SSW 24.2 mph 34.5 mph N/A   Clear
4:35 PM 42.8 °F 34.5 °F 6.8 °F 23% 29.74 in 10.0 mi SSW 18.4 mph 29.9 mph N/A   Clear
4:55 PM 41.0 °F 32.2 °F 6.8 °F 24% 29.73 in 10.0 mi SSW 18.4 mph 28.8 mph N/A   Clear
5:15 PM 39.2 °F 29.8 °F 8.6 °F 28% 29.73 in 10.0 mi South 18.4 mph 27.6 mph N/A   Clear
5:35 PM 37.4 °F 27.8 °F 8.6 °F 30% 29.73 in 10.0 mi SSW 17.3 mph 24.2 mph N/A   Clear
5:55 PM 37.4 °F 28.2 °F 8.6 °F 30% 29.72 in 10.0 mi South 16.1 mph 28.8 mph N/A   Clear
6:15 PM 35.6 °F 25.5 °F 8.6 °F 33% 29.72 in 10.0 mi South 17.3 mph - N/A   Clear
6:35 PM 35.6 °F 27.1 °F 10.4 °F 35% 29.71 in 10.0 mi South 12.7 mph 19.6 mph N/A   Partly Cloudy
6:55 PM 35.6 °F 26.2 °F 10.4 °F 35% 29.70 in 10.0 mi SSW 15.0 mph - N/A   Clear
7:15 PM 35.6 °F 25.5 °F 8.6 °F 33% 29.69 in 10.0 mi South 17.3 mph - N/A   Clear
7:35 PM 35.6 °F 25.2 °F 8.6 °F 33% 29.68 in 10.0 mi South 18.4 mph 27.6 mph N/A   Clear
7:55 PM 33.8 °F 23.2 °F 8.6 °F 35% 29.68 in 10.0 mi South 17.3 mph 23.0 mph N/A   Clear
8:15 PM 33.8 °F 23.2 °F 8.6 °F 35% 29.67 in 10.0 mi South 17.3 mph 26.5 mph N/A   Clear
8:35 PM 33.8 °F 23.2 °F 8.6 °F 35% 29.66 in 10.0 mi South 17.3 mph 27.6 mph N/A   Clear
8:55 PM 33.8 °F 23.2 °F 8.6 °F 35% 29.65 in 10.0 mi South 17.3 mph 26.5 mph N/A   Clear
9:15 PM 33.8 °F 23.2 °F 8.6 °F 35% 29.64 in 10.0 mi SSW 17.3 mph 26.5 mph N/A   Clear
9:35 PM 33.8 °F 23.5 °F 8.6 °F 35% 29.64 in 10.0 mi SSW 16.1 mph 21.9 mph N/A   Clear
9:55 PM 33.8 °F 24.3 °F 8.6 °F 35% 29.64 in 10.0 mi SSW 13.8 mph 20.7 mph N/A   Clear
10:15 PM 33.8 °F 23.9 °F 8.6 °F 35% 29.63 in 10.0 mi SSW 15.0 mph 24.2 mph N/A   Clear
10:35 PM 32.0 °F 22.5 °F 8.6 °F 38% 29.61 in 10.0 mi South 12.7 mph 24.2 mph N/A   Clear
10:55 PM 32.0 °F 21.6 °F 8.6 °F 38% 29.61 in 10.0 mi SSW 15.0 mph 21.9 mph N/A   Clear
11:15 PM 32.0 °F 20.8 °F 8.6 °F 38% 29.59 in 10.0 mi South 17.3 mph 25.3 mph N/A   Clear
11:35 PM 33.8 °F 22.8 °F 8.6 °F 35% 29.58 in 10.0 mi South 18.4 mph 25.3 mph N/A   Clear
11:55 PM 33.8 °F 23.5 °F 8.6 °F 35% 29.57 in 10.0 mi South 16.1 mph 23.0 mph N/A   Clear